Location: ?
(35.4554°N, 139.3092°E)
Time: 21:02:47
(UTC+00:00)

Cosmos 2263 - Pass Details

Date: 21 April 2021
Orbit: 829 x 867 km, 70.9° (Epoch: 10 May)

Event Time Altitude Azimuth Distance (km) Brightness Sun altitude
Exits shadow 18:29:27 28° 216° (SW) 1,536 5.0 -18.2°
Maximum altitude 18:32:30 68° 293° (WNW) 916 4.2 -17.6°
Drops below altitude 10° 18:38:14 10° 16° (NNE) 2,504 7.3 -16.6°
Sets 18:40:44 0° 19° (NNE) 3,448 8.1 -16.2°
